FW4603 Weather Reports


time (UTC)temp
F
wind
direction
speed
knots
gust
knots
rain 1hr
in
rain 24hr
in
rain mn
in
humidity
%
barometer
mb
20260902034525 62 134 0.0 0.0 0.00 0.00 0.00 75 1016.8
20260902033048 62 139 0.0 2.6 0.00 0.00 0.00 75 1016.7
20260902031501 63 80 0.0 4.3 0.00 0.00 0.00 73 1016.3
20260902030035 63 74 0.9 6.1 0.00 0.00 0.00 72 1016.2
20260902024501 64 89 0.9 9.6 0.00 0.00 0.00 69 1016.2
20260902023104 64 92 0.9 7.0 0.00 0.00 0.00 66 1016.0
20260902021528 65 92 2.6 7.8 0.00 0.00 0.00 62 1015.9
20260902020108 67 30 0.9 7.0 0.00 0.00 0.00 59 1015.8
20260902014528 68 124 0.0 4.3 0.00 0.00 0.00 57 1015.6
20260902013016 71 72 1.7 7.0 0.00 0.00 0.00 53 1015.6
20260902011546 70 62 0.0 4.3 0.00 0.00 0.00 55 1015.7
20260902010026 71 72 4.3 13.0 0.00 0.00 0.00 53 1015.6
20260902004600 72 84 3.5 9.6 0.00 0.00 0.00 51 1015.5
20260902003032 73 343 2.6 10.4 0.00 0.00 0.00 52 1015.5
20260902001622 72 78 0.0 9.6 0.00 0.00 0.00 53 1015.4
20260902000040 73 296 0.0 8.7 0.00 0.00 0.00 51 1015.5
20260901234506 74 281 3.5 7.8 0.00 0.00 0.00 48 1015.6
20260901233052 73 189 0.0 10.4 0.00 0.00 0.00 50 1015.6
20260901231527 73 69 3.5 8.7 0.00 0.00 0.00 50 1015.7
20260901230046 73 37 3.5 10.4 0.00 0.00 0.00 47 1015.8
20260901224510 75 101 1.7 9.6 0.00 0.00 0.00 45 1015.8
20260901223059 74 316 0.9 6.1 0.00 0.00 0.00 47 1015.8
20260901221522 73 120 3.5 9.6 0.00 0.00 0.00 47 1015.9
20260901220106 74 138 0.0 13.0 0.00 0.00 0.00 48 1016.0
20260901214515 74 62 0.9 7.0 0.00 0.00 0.00 48 1016.2
20260901213107 74 186 1.7 7.0 0.00 0.00 0.00 47 1016.3
20260901211540 73 96 2.6 10.4 0.00 0.00 0.00 48 1016.1
20260901204542 73 109 0.0 7.0 0.00 0.00 0.00 47 1016.0
20260901203024 71 76 2.6 8.7 0.00 0.00 0.00 52 1016.1
20260901201602 70 28 5.2 10.4 0.00 0.00 0.00 52 1016.5
20260901200041 71 79 5.2 11.3 0.00 0.00 0.00 49 1016.6
20260901194607 72 251 0.0 6.1 0.00 0.00 0.00 49 1016.6
20260901193028 71 43 1.7 10.4 0.00 0.00 0.00 51 1016.6
20260901191555 70 133 5.2 11.3 0.00 0.00 0.00 52 1016.8
20260901190012 70 129 3.5 8.7 0.00 0.00 0.00 54 1016.8
20260901184544 70 230 0.0 4.3 0.00 0.00 0.00 54 1016.8
20260901183050 69 157 0.0 5.2 0.00 0.00 0.00 56 1016.7
20260901181518 68 38 0.9 7.0 0.00 0.00 0.00 58 1016.7
20260901180049 67 245 1.7 8.7 0.00 0.00 0.00 60 1016.6
20260901174513 66 126 2.6 8.7 0.00 0.00 0.00 62 1016.5
20260901173102 66 57 1.7 7.0 0.00 0.00 0.00 64 1016.5
20260901171542 65 309 0.9 7.8 0.00 0.00 0.00 65 1016.5
20260901170016 65 351 0.9 7.0 0.00 0.00 0.00 66 1016.4
20260901164552 64 64 0.9 4.3 0.00 0.00 0.00 68 1016.2
20260901163016 64 76 2.6 7.8 0.00 0.00 0.00 71 1016.2
20260901161607 63 112 1.7 6.1 0.00 0.00 0.00 72 1016.2
20260901160031 63 79 0.9 7.0 0.00 0.00 0.00 74 1016.0
20260901154609 62 5 0.0 7.8 0.00 0.00 0.00 75 1015.8
20260901153048 62 86 0.0 7.0 0.00 0.00 0.00 77 1015.8
20260901151512 61 77 0.0 7.0 0.00 0.00 0.00 78 1015.6
20260901150041 61 92 1.7 5.2 0.00 0.00 0.00 78 1015.6
20260901144513 61 98 0.0 1.7 0.00 0.00 0.00 78 1015.4
20260901143011 61 99 0.0 0.0 0.00 0.00 0.00 77 1015.1
20260901141545 61 99 0.0 6.1 0.00 0.00 0.00 77 1015.0
20260901140113 61 102 0.0 0.0 0.00 0.00 0.00 78 1014.7
20260901134602 60 102 0.0 0.0 0.00 0.00 0.00 78 1014.8
20260901133021 61 102 0.0 0.0 0.00 0.00 0.00 78 1014.6
20260901131601 61 102 0.0 0.0 0.00 0.00 0.00 78 1014.4
20260901130030 61 102 0.0 5.2 0.00 0.00 0.00 78 1014.4
20260901124528 61 102 0.0 4.3 0.00 0.00 0.00 78 1014.3
20260901123012 60 182 0.0 7.0 0.00 0.00 0.00 78 1014.2
20260901121546 60 109 0.0 0.0 0.00 0.00 0.00 78 1014.1
20260901120010 61 104 0.0 0.0 0.00 0.00 0.00 77 1014.0
20260901114622 61 105 0.0 5.2 0.00 0.00 0.00 77 1014.1
20260901113109 61 105 0.0 3.5 0.00 0.00 0.00 77 1014.2
20260901111528 61 102 0.0 6.1 0.00 0.00 0.00 76 1014.3
20260901110105 61 71 0.0 7.8 0.00 0.00 0.00 76 1014.3
20260901104535 61 91 1.7 7.0 0.00 0.00 0.00 75 1014.1
20260901103001 61 103 0.0 4.3 0.00 0.00 0.00 75 1014.0
20260901101535 61 121 0.0 4.3 0.00 0.00 0.00 75 1014.0
20260901100105 61 70 0.0 0.0 0.00 0.00 0.00 75 1014.0
20260901094539 61 70 0.0 4.3 0.00 0.00 0.00 75 1014.0
20260901093006 61 144 0.0 0.0 0.00 0.00 0.00 75 1014.2
20260901091530 61 153 0.0 0.0 0.00 0.00 0.00 75 1014.2
20260901090007 61 108 0.0 0.0 0.00 0.00 0.00 75 1014.2
20260901084543 60 99 0.0 6.1 0.00 0.00 0.00 75 1014.1
20260901083007 60 58 0.0 3.5 0.00 0.00 0.00 74 1014.0
20260901081551 60 86 0.9 5.2 0.00 0.00 0.00 74 1014.1
20260901080025 60 99 0.0 3.5 0.00 0.00 0.00 74 1013.9
20260901074547 60 69 0.0 7.8 0.00 0.00 0.00 74 1013.9
20260901073105 60 14 3.5 10.4 0.00 0.00 0.00 74 1013.9
20260901071524 60 78 0.0 9.6 0.00 0.00 0.00 73 1014.0
20260901070010 60 52 0.9 8.7 0.00 0.00 0.00 73 1014.0
20260901064556 60 83 0.0 4.3 0.00 0.00 0.00 74 1014.0
20260901063027 60 76 1.7 6.1 0.00 0.00 0.00 74 1014.0
20260901061602 60 82 3.5 9.6 0.00 0.00 0.00 74 1014.2
20260901060042 60 121 1.7 9.6 0.00 0.00 0.00 74 1014.3
20260901054505 60 88 0.0 8.7 0.00 0.00 0.00 74 1014.3
20260901053057 60 332 0.0 7.0 0.00 0.00 0.00 74 1014.1
20260901051514 60 28 0.0 6.1 0.00 0.00 0.00 74 1014.1
20260901050053 60 96 0.0 7.0 0.00 0.00 0.00 74 1014.0
20260901044541 60 75 1.7 7.8 0.00 0.00 0.00 74 1014.0
20260901043002 60 50 1.7 13.9 0.00 0.00 0.00 74 1014.0
20260901041546 60 83 1.7 9.6 0.00 0.00 0.00 74 1013.9
20260901040006 60 113 2.6 9.6 0.00 0.00 0.00 74 1013.7
20260901034558 60 107 0.9 9.6 0.00 0.00 0.00 74 1013.6